Welcome to our new website - Welkom op onze vernieuwde website - Bienvenue sur notre nouveau site web - Willkommen auf unserer neuen Website
Check our progress frequently. Prüfen Sie unsere Fortschritte regelmäßig. Consultez notre progression fréquemment. Komt u straks nog eens terug


Hej. Vi har købt ny vejrstation, og er ved at bygge en helt ny vejrside.
Kom snart tilbage og følg udviklingen.
Du kan også komme med kommentarer eller evt. ønsker via "Kontakt" i bunden.



Webcam more information Webcam


Rain radar more information rain snow radar


Visit our other weather sites:

Template documentation
and downloads

And another site



Select another period ( hide this area )

Units Period Custom range Directly to
Metric English Both
Daily Weekly Monthly Yearly
use both date-selectors for a custom range
previous Day
With this date

WeatherUnderground graphs for this period ( click here )


Daily Summary for Wednesday 14 November 2018
Time Temp. ( °C ) Dew pt. ( °C ) Wind ( km/h ) from Gust ( km/h ) Pressure ( hPa ) Humid.( % ) Rainrate ( cm ) Solar ( W/m2 )
High10,6 9,0 20,9 West ( 576/1192 ) 27,4 1026,3 94 - 102
Average9,6 8,4 9,0 West #55/132 15,2 1023,1 92 - 52 #43/132
Low9,3 7,9 1,4   6,4 1019,9 90 -  
Daily Tabular details for Wednesday 14 November 2018
Time Temp. ( °C ) Dew pt. ( °C ) Wind ( km/h ) from Gust ( km/h ) Pressure ( hPa ) Humid.( % ) Rainrate ( cm ) Solar ( W/m2 )
00:04 9,3 7,9 11,1 WSW 20,9 1019,9 91 - -
00:09 9,3 7,9 16,3 WSW 20,9 1019,9 91 - -
00:14 9,3 7,9 14,3 WSW 14,5 1019,9 91 - -
00:19 9,3 7,9 13,0 WSW 19,3 1019,9 91 - -
00:24 9,3 7,9 14,3 West 20,9 1019,9 91 - -
00:29 9,4 8,0 11,1 WSW 20,9 1019,9 91 - -
00:34 9,4 8,0 4,7 WSW 12,9 1020,2 91 - -
00:39 9,4 8,0 9,7 SW 16,1 1020,2 91 - -
00:44 9,4 8,0 6,4 SW 17,7 1020,2 91 - -
00:49 9,5 8,1 13,0 SW 22,5 1020,5 91 - -
00:54 9,6 8,2 16,3 West 22,5 1020,5 91 - -
00:59 9,6 8,2 11,1 West 20,9 1020,5 91 - -
01:04 9,6 8,2 11,1 West 14,5 1020,5 91 - -
01:09 9,6 8,2 9,7 West 14,5 1020,5 91 - -
01:14 9,6 8,2 11,1 West 27,4 1020,5 91 - -
01:19 9,6 8,2 4,7 West 16,1 1020,5 91 - -
01:24 9,6 8,2 11,1 WSW 17,7 1020,5 91 - -
01:29 9,6 8,4 11,1 SW 24,1 1020,5 92 - -
01:34 9,6 8,4 11,1 West 14,5 1020,9 92 - -
01:39 9,6 8,4 19,5 West 22,5 1020,9 92 - -
01:44 9,6 8,4 11,1 West 22,5 1020,9 92 - -
01:49 9,6 8,4 13,0 West 22,5 1020,9 92 - -
01:54 9,5 8,3 7,9 WSW 20,9 1021,2 92 - -
01:59 9,5 8,3 4,7 SW 19,3 1021,2 92 - -
02:04 9,5 8,3 6,4 WSW 19,3 1021,2 92 - -
02:09 9,5 8,3 20,9 West 25,7 1021,2 92 - -
02:14 9,6 8,4 7,9 WSW 27,4 1021,2 92 - -
02:19 9,5 8,3 19,5 WSW 19,3 1021,2 92 - -
02:24 9,5 8,3 9,7 West 14,5 1021,2 92 - -
02:29 9,5 8,3 11,1 WSW 20,9 1021,2 92 - -
02:34 9,6 8,4 7,9 WSW 17,7 1021,2 92 - -
02:39 9,5 8,3 11,1 SW 19,3 1021,2 92 - -
02:44 9,5 8,3 13,0 West 14,5 1021,2 92 - -
02:49 9,5 8,3 9,7 West 9,7 1021,6 92 - -
02:54 9,5 8,3 11,1 WSW 11,3 1021,6 92 - -
02:59 9,6 8,5 11,1 West 19,3 1021,6 93 - -
03:04 9,6 8,5 7,9 WNW 12,9 1021,6 93 - -
03:09 9,6 8,5 11,1 West 16,1 1021,6 93 - -
03:14 9,6 8,5 11,1 West 14,5 1021,6 93 - -
03:19 9,6 8,5 13,0 West 16,1 1021,9 93 - -
03:24 9,7 8,6 11,1 WSW 19,3 1021,9 93 - -
03:29 9,7 8,6 6,4 WSW 17,7 1021,9 93 - -
03:34 9,6 8,5 6,4 WNW 22,5 1021,9 93 - -
03:39 9,7 8,6 4,7 SW 6,4 1021,9 93 - -
03:44 9,7 8,6 14,3 WSW 14,5 1022,2 93 - -
03:49 9,6 8,5 17,7 West 20,9 1022,2 93 - -
03:54 9,6 8,5 16,3 West 16,1 1022,2 93 - -
03:59 9,6 8,5 7,9 SW 17,7 1022,2 93 - -
04:04 9,6 8,5 13,0 West 16,1 1022,2 93 - -
04:09 9,6 8,5 7,9 WSW 17,7 1022,2 93 - -
04:14 9,6 8,5 13,0 West 17,7 1022,2 93 - -
04:19 9,6 8,5 9,7 SW 19,3 1022,2 93 - -
04:24 9,6 8,5 16,3 West 17,7 1022,2 93 - -
04:29 9,6 8,5 11,1 West 11,3 1022,2 93 - -
04:34 9,6 8,5 13,0 West 14,5 1022,2 93 - -
04:39 9,6 8,5 13,0 West 16,1 1022,6 93 - -
04:44 9,6 8,5 14,3 West 17,7 1022,6 93 - -
04:49 9,7 8,6 11,1 WSW 16,1 1022,6 93 - -
04:54 9,6 8,5 13,0 WNW 16,1 1022,6 93 - -
04:59 9,6 8,5 7,9 WSW 14,5 1022,6 93 - -
05:04 9,6 8,5 7,9 WSW 16,1 1022,6 93 - -
05:09 9,6 8,5 3,2 West 11,3 1022,9 93 - -
05:14 9,6 8,5 4,7 SW 11,3 1022,9 93 - -
05:19 9,5 8,3 6,4 SW 11,3 1022,9 92 - -
05:24 9,6 8,4 9,7 West 9,7 1022,9 92 - -
05:29 9,5 8,3 11,1 West 12,9 1022,9 92 - -
05:34 9,5 8,3 6,4 West 11,3 1022,9 92 - -
05:39 9,4 8,2 6,4 West 11,3 1022,9 92 - -
05:44 9,4 8,2 11,1 West 12,9 1022,9 92 - -
05:49 9,4 8,2 3,2 WSW 14,5 1023,2 92 - -
05:54 9,4 8,2 9,7 West 14,5 1023,2 92 - -
05:59 9,4 8,2 13,0 WSW 14,5 1023,2 92 - -
06:04 9,4 8,2 6,4 WSW 12,9 1023,2 92 - -
06:09 9,4 8,2 7,9 WSW 11,3 1023,2 92 - -
06:14 9,3 8,1 7,9 SSW 12,9 1023,2 92 - -
06:19 9,3 8,2 11,1 WSW 17,7 1023,6 93 - -
06:24 9,3 8,2 7,9 SSW 12,9 1023,6 93 - -
06:29 9,3 8,2 4,7 WSW 11,3 1023,6 93 - -
06:34 9,3 8,2 6,4 WSW 16,1 1023,6 93 - -
06:39 9,3 8,2 7,9 WSW 12,9 1023,6 93 - -
06:44 9,3 8,2 4,7 West 19,3 1023,9 93 - -
06:49 9,4 8,3 14,3 West 17,7 1023,9 93 - -
06:54 9,4 8,3 13,0 West 16,1 1023,9 93 - -
06:59 9,4 8,3 4,7 WSW 22,5 1024,3 93 - -
07:04 9,4 8,3 11,1 SW 14,5 1024,3 93 - -
07:09 9,4 8,3 11,1 WSW 17,7 1024,3 93 - -
07:14 9,4 8,3 11,1 West 16,1 1024,3 93 - -
07:19 9,4 8,3 6,4 West 12,9 1024,3 93 - -
07:24 9,3 8,2 6,4 WNW 14,5 1024,3 93 - -
07:29 9,3 8,2 7,9 WSW 14,5 1024,6 93 - 5
07:34 9,3 8,2 4,7 SW 11,3 1024,6 93 - 5
07:39 9,3 8,2 4,7 WSW 17,7 1024,6 93 - 5
07:44 9,3 8,2 6,4 SW 11,3 1024,6 93 - 7
07:49 9,3 8,2 4,7 SW 6,4 1024,6 93 - 9
07:54 9,3 8,2 3,2 WSW 14,5 1024,6 93 - 11
07:59 9,3 8,2 9,7 West 14,5 1024,9 93 - 12
08:04 9,3 8,4 3,2 WSW 14,5 1024,9 94 - 14
08:09 9,4 8,5 4,7 WSW 11,3 1024,9 94 - 18
08:14 9,4 8,5 6,4 West 9,7 1024,9 94 - 25
08:19 9,4 8,5 3,2 WSW 8,0 1024,9 94 - 26
08:24 9,4 8,5 6,4 West 11,3 1024,9 94 - 32
08:29 9,4 8,5 11,1 West 11,3 1024,9 94 - 33
08:34 9,4 8,5 3,2 WSW 11,3 1024,9 94 - 35
08:39 9,5 8,6 4,7 WSW 12,9 1025,3 94 - 37
08:44 9,6 8,7 9,7 West 12,9 1025,3 94 - 39
08:49 9,6 8,5 6,4 SW 11,3 1025,3 93 - 40
08:54 9,6 8,5 4,7 SW 11,3 1025,3 93 - 40
08:59 9,6 8,5 11,1 WSW 14,5 1025,3 93 - 54
09:04 9,7 8,6 6,4 WSW 9,7 1025,3 93 - 63
09:09 9,7 8,6 4,7 WSW 11,3 1025,3 93 - 72
09:14 9,8 8,7 7,9 SW 16,1 1025,3 93 - 60
09:19 9,8 8,6 7,9 WSW 17,7 1025,6 92 - 53
09:24 9,8 8,6 6,4 WSW 11,3 1025,6 92 - 54
09:29 9,9 8,7 6,4 West 11,3 1025,6 92 - 56
09:34 9,9 8,7 4,7 WSW 11,3 1025,6 92 - 67
09:39 9,9 8,7 6,4 West 8,0 1025,6 92 - 69
09:44 9,9 8,7 11,1 SW 14,5 1025,6 92 - 65
09:49 10,0 8,8 7,9 SW 12,9 1025,6 92 - 62
09:54 10,1 8,7 6,4 WSW 14,5 1025,6 91 - 65
09:59 10,1 8,7 4,7 SW 11,3 1025,6 91 - 70
10:04 10,1 8,7 7,9 SW 12,9 1025,6 91 - 76
10:09 10,2 8,8 6,4 West 12,9 1026,0 91 - 77
10:14 10,2 8,8 9,7 West 12,9 1026,0 91 - 102
10:19 10,3 8,9 7,9 WSW 11,3 1026,0 91 - 98
10:24 10,4 9,0 6,4 SSW 9,7 1026,3 91 - 74
10:29 10,4 8,8 1,4 West 11,3 1026,0 90 - 90
10:34 10,4 8,8 9,7 West 12,9 1026,0 90 - 91
10:39 10,5 8,9 4,7 West 14,5 1026,3 90 - 93
10:44 10,5 8,9 9,7 West 11,3 1026,3 90 - 83
10:49 10,5 8,9 6,4 West 8,0 1026,3 90 - 77
10:54 10,6 9,0 6,4 SW 14,5 1026,3 90 - 77
10:59 10,6 9,0 4,7 West 11,3 1026,3 90 - 79
Daily Summary for Wednesday 14 November 2018
Time Temp. ( °C ) Dew pt. ( °C ) Wind ( km/h ) from Gust ( km/h ) Pressure ( hPa ) Humid.( % ) Rainrate ( cm ) Solar ( W/m2 )
High10,6 9,0 20,9 West ( 576/1192 ) 27,4 1026,3 94 - 102
Average9,6 8,4 9,0 West #55/132 15,2 1023,1 92 - 52 #43/132
Low9,3 7,9 1,4   6,4 1019,9 90 -  
Daily Tabular details for Wednesday 14 November 2018
Time Temp. ( °C ) Dew pt. ( °C ) Wind ( km/h ) from Gust ( km/h ) Pressure ( hPa ) Humid.( % ) Rainrate ( cm ) Solar ( W/m2 )
00:04 9,3 7,9 11,1 WSW 20,9 1019,9 91 - -
00:09 9,3 7,9 16,3 WSW 20,9 1019,9 91 - -
00:14 9,3 7,9 14,3 WSW 14,5 1019,9 91 - -
00:19 9,3 7,9 13,0 WSW 19,3 1019,9 91 - -
00:24 9,3 7,9 14,3 West 20,9 1019,9 91 - -
00:29 9,4 8,0 11,1 WSW 20,9 1019,9 91 - -
00:34 9,4 8,0 4,7 WSW 12,9 1020,2 91 - -
00:39 9,4 8,0 9,7 SW 16,1 1020,2 91 - -
00:44 9,4 8,0 6,4 SW 17,7 1020,2 91 - -
00:49 9,5 8,1 13,0 SW 22,5 1020,5 91 - -
00:54 9,6 8,2 16,3 West 22,5 1020,5 91 - -
00:59 9,6 8,2 11,1 West 20,9 1020,5 91 - -
01:04 9,6 8,2 11,1 West 14,5 1020,5 91 - -
01:09 9,6 8,2 9,7 West 14,5 1020,5 91 - -
01:14 9,6 8,2 11,1 West 27,4 1020,5 91 - -
01:19 9,6 8,2 4,7 West 16,1 1020,5 91 - -
01:24 9,6 8,2 11,1 WSW 17,7 1020,5 91 - -
01:29 9,6 8,4 11,1 SW 24,1 1020,5 92 - -
01:34 9,6 8,4 11,1 West 14,5 1020,9 92 - -
01:39 9,6 8,4 19,5 West 22,5 1020,9 92 - -
01:44 9,6 8,4 11,1 West 22,5 1020,9 92 - -
01:49 9,6 8,4 13,0 West 22,5 1020,9 92 - -
01:54 9,5 8,3 7,9 WSW 20,9 1021,2 92 - -
01:59 9,5 8,3 4,7 SW 19,3 1021,2 92 - -
02:04 9,5 8,3 6,4 WSW 19,3 1021,2 92 - -
02:09 9,5 8,3 20,9 West 25,7 1021,2 92 - -
02:14 9,6 8,4 7,9 WSW 27,4 1021,2 92 - -
02:19 9,5 8,3 19,5 WSW 19,3 1021,2 92 - -
02:24 9,5 8,3 9,7 West 14,5 1021,2 92 - -
02:29 9,5 8,3 11,1 WSW 20,9 1021,2 92 - -
02:34 9,6 8,4 7,9 WSW 17,7 1021,2 92 - -
02:39 9,5 8,3 11,1 SW 19,3 1021,2 92 - -
02:44 9,5 8,3 13,0 West 14,5 1021,2 92 - -
02:49 9,5 8,3 9,7 West 9,7 1021,6 92 - -
02:54 9,5 8,3 11,1 WSW 11,3 1021,6 92 - -
02:59 9,6 8,5 11,1 West 19,3 1021,6 93 - -
03:04 9,6 8,5 7,9 WNW 12,9 1021,6 93 - -
03:09 9,6 8,5 11,1 West 16,1 1021,6 93 - -
03:14 9,6 8,5 11,1 West 14,5 1021,6 93 - -
03:19 9,6 8,5 13,0 West 16,1 1021,9 93 - -
03:24 9,7 8,6 11,1 WSW 19,3 1021,9 93 - -
03:29 9,7 8,6 6,4 WSW 17,7 1021,9 93 - -
03:34 9,6 8,5 6,4 WNW 22,5 1021,9 93 - -
03:39 9,7 8,6 4,7 SW 6,4 1021,9 93 - -
03:44 9,7 8,6 14,3 WSW 14,5 1022,2 93 - -
03:49 9,6 8,5 17,7 West 20,9 1022,2 93 - -
03:54 9,6 8,5 16,3 West 16,1 1022,2 93 - -
03:59 9,6 8,5 7,9 SW 17,7 1022,2 93 - -
04:04 9,6 8,5 13,0 West 16,1 1022,2 93 - -
04:09 9,6 8,5 7,9 WSW 17,7 1022,2 93 - -
04:14 9,6 8,5 13,0 West 17,7 1022,2 93 - -
04:19 9,6 8,5 9,7 SW 19,3 1022,2 93 - -
04:24 9,6 8,5 16,3 West 17,7 1022,2 93 - -
04:29 9,6 8,5 11,1 West 11,3 1022,2 93 - -
04:34 9,6 8,5 13,0 West 14,5 1022,2 93 - -
04:39 9,6 8,5 13,0 West 16,1 1022,6 93 - -
04:44 9,6 8,5 14,3 West 17,7 1022,6 93 - -
04:49 9,7 8,6 11,1 WSW 16,1 1022,6 93 - -
04:54 9,6 8,5 13,0 WNW 16,1 1022,6 93 - -
04:59 9,6 8,5 7,9 WSW 14,5 1022,6 93 - -
05:04 9,6 8,5 7,9 WSW 16,1 1022,6 93 - -
05:09 9,6 8,5 3,2 West 11,3 1022,9 93 - -
05:14 9,6 8,5 4,7 SW 11,3 1022,9 93 - -
05:19 9,5 8,3 6,4 SW 11,3 1022,9 92 - -
05:24 9,6 8,4 9,7 West 9,7 1022,9 92 - -
05:29 9,5 8,3 11,1 West 12,9 1022,9 92 - -
05:34 9,5 8,3 6,4 West 11,3 1022,9 92 - -
05:39 9,4 8,2 6,4 West 11,3 1022,9 92 - -
05:44 9,4 8,2 11,1 West 12,9 1022,9 92 - -
05:49 9,4 8,2 3,2 WSW 14,5 1023,2 92 - -
05:54 9,4 8,2 9,7 West 14,5 1023,2 92 - -
05:59 9,4 8,2 13,0 WSW 14,5 1023,2 92 - -
06:04 9,4 8,2 6,4 WSW 12,9 1023,2 92 - -
06:09 9,4 8,2 7,9 WSW 11,3 1023,2 92 - -
06:14 9,3 8,1 7,9 SSW 12,9 1023,2 92 - -
06:19 9,3 8,2 11,1 WSW 17,7 1023,6 93 - -
06:24 9,3 8,2 7,9 SSW 12,9 1023,6 93 - -
06:29 9,3 8,2 4,7 WSW 11,3 1023,6 93 - -
06:34 9,3 8,2 6,4 WSW 16,1 1023,6 93 - -
06:39 9,3 8,2 7,9 WSW 12,9 1023,6 93 - -
06:44 9,3 8,2 4,7 West 19,3 1023,9 93 - -
06:49 9,4 8,3 14,3 West 17,7 1023,9 93 - -
06:54 9,4 8,3 13,0 West 16,1 1023,9 93 - -
06:59 9,4 8,3 4,7 WSW 22,5 1024,3 93 - -
07:04 9,4 8,3 11,1 SW 14,5 1024,3 93 - -
07:09 9,4 8,3 11,1 WSW 17,7 1024,3 93 - -
07:14 9,4 8,3 11,1 West 16,1 1024,3 93 - -
07:19 9,4 8,3 6,4 West 12,9 1024,3 93 - -
07:24 9,3 8,2 6,4 WNW 14,5 1024,3 93 - -
07:29 9,3 8,2 7,9 WSW 14,5 1024,6 93 - 5
07:34 9,3 8,2 4,7 SW 11,3 1024,6 93 - 5
07:39 9,3 8,2 4,7 WSW 17,7 1024,6 93 - 5
07:44 9,3 8,2 6,4 SW 11,3 1024,6 93 - 7
07:49 9,3 8,2 4,7 SW 6,4 1024,6 93 - 9
07:54 9,3 8,2 3,2 WSW 14,5 1024,6 93 - 11
07:59 9,3 8,2 9,7 West 14,5 1024,9 93 - 12
08:04 9,3 8,4 3,2 WSW 14,5 1024,9 94 - 14
08:09 9,4 8,5 4,7 WSW 11,3 1024,9 94 - 18
08:14 9,4 8,5 6,4 West 9,7 1024,9 94 - 25
08:19 9,4 8,5 3,2 WSW 8,0 1024,9 94 - 26
08:24 9,4 8,5 6,4 West 11,3 1024,9 94 - 32
08:29 9,4 8,5 11,1 West 11,3 1024,9 94 - 33
08:34 9,4 8,5 3,2 WSW 11,3 1024,9 94 - 35
08:39 9,5 8,6 4,7 WSW 12,9 1025,3 94 - 37
08:44 9,6 8,7 9,7 West 12,9 1025,3 94 - 39
08:49 9,6 8,5 6,4 SW 11,3 1025,3 93 - 40
08:54 9,6 8,5 4,7 SW 11,3 1025,3 93 - 40
08:59 9,6 8,5 11,1 WSW 14,5 1025,3 93 - 54
09:04 9,7 8,6 6,4 WSW 9,7 1025,3 93 - 63
09:09 9,7 8,6 4,7 WSW 11,3 1025,3 93 - 72
09:14 9,8 8,7 7,9 SW 16,1 1025,3 93 - 60
09:19 9,8 8,6 7,9 WSW 17,7 1025,6 92 - 53
09:24 9,8 8,6 6,4 WSW 11,3 1025,6 92 - 54
09:29 9,9 8,7 6,4 West 11,3 1025,6 92 - 56
09:34 9,9 8,7 4,7 WSW 11,3 1025,6 92 - 67
09:39 9,9 8,7 6,4 West 8,0 1025,6 92 - 69
09:44 9,9 8,7 11,1 SW 14,5 1025,6 92 - 65
09:49 10,0 8,8 7,9 SW 12,9 1025,6 92 - 62
09:54 10,1 8,7 6,4 WSW 14,5 1025,6 91 - 65
09:59 10,1 8,7 4,7 SW 11,3 1025,6 91 - 70
10:04 10,1 8,7 7,9 SW 12,9 1025,6 91 - 76
10:09 10,2 8,8 6,4 West 12,9 1026,0 91 - 77
10:14 10,2 8,8 9,7 West 12,9 1026,0 91 - 102
10:19 10,3 8,9 7,9 WSW 11,3 1026,0 91 - 98
10:24 10,4 9,0 6,4 SSW 9,7 1026,3 91 - 74
10:29 10,4 8,8 1,4 West 11,3 1026,0 90 - 90
10:34 10,4 8,8 9,7 West 12,9 1026,0 90 - 91
10:39 10,5 8,9 4,7 West 14,5 1026,3 90 - 93
10:44 10,5 8,9 9,7 West 11,3 1026,3 90 - 83
10:49 10,5 8,9 6,4 West 8,0 1026,3 90 - 77
10:54 10,6 9,0 6,4 SW 14,5 1026,3 90 - 77
10:59 10,6 9,0 4,7 West 11,3 1026,3 90 - 79

Download your copy of this data-set  here

Our weather-data as stored at Weather Underground. Script developed by Jim McMurry. Adapted for the template by Leuven-Template.eu

You find our weather info also at:

European Weather Network

Weather Underground

European Weather Network

Equipment we use:

Weather-station
Davis VP2

Weather-program
Weather Display

Davis VP2

Weather Display



Hej. Vi har købt ny vejrstation, og er ved at bygge en helt ny vejrside.
Kom snart tilbage og følg udviklingen.
Du kan også komme med kommentarer eller evt. ønsker via "Kontakt" i bunden.